全球卫星定位系统 GPS 78星 (NAVSTAR 78 (USA 293))

导读 | 星芒AI

NAVSTAR 78(USA 293)是美国空军部署的一颗GPS IIIA系列导航卫星,于2018年12月由SpaceX的猎鹰9号火箭从加利福尼亚州范登堡空军基地发射升空。该卫星由洛克希德·马丁公司制造,是GPS现代化计划的一部分,旨在提供更精确的定位、导航和授时服务。NAVSTAR 78具备增强的抗干扰能力和更长的使用寿命,运行在中地球轨道,为全球用户提供军事和民用导航支持。

基本信息
目录编号:
44506
目录名称:
NAVSTAR 78 (USA 293)
国际标识:
2019-056A
轨道中心:
EARTH
卫星名称:
GPS 78星
卫星全名:
全球卫星定位系统 GPS 78星 (NAVSTAR 78 (USA 293))
卫星状态:
在轨 (已飞行2385 天)
发射日期:
2019-08-22 UTC
国别 :
美国 (US)
星等 :
--
轨道信息
数据来源 国际轨道数据 AOE轨道数据
星历时间 2026-03-02T12:39:28+0800
20小时前
查看轨道信息
2026-02-24T13:00:00+0800
6天前
查看轨道信息
半长轴 26559.951km 26559.969km
偏心率 0.0058018 0.005794
轨道倾角 55.686° 55.689°
近地点辐角 198.206° 198.403°
升交点赤经 335.397° 335.636°
平近点角 333.017° 330.736°
近地点 20027.718km 20027.943km
远地点 20335.91km 20335.721km
周期 717.961分钟 717.961分钟
每日圈数 2.005681 2.005679
详细信息
平衡模式:
三轴稳定
覆盖范围:
全球
运营商:
美国太空军
运营商所在国:
美国
制造商(研发单位):
洛克希德·马丁公司
制造商所在国:
美国
使用方式:
暂无
工作目标:
提供军用及民用全球定位与导航服务
预期寿命:
15年
卫星简介
全球定位系统(英语:Global Positioning System,通常简称GPS),又称全球卫星定位系统,是美国国防部研制,美国太空军运营与维护的中地球轨道卫星导航系统。它可以为地球表面约98%的地区提供准确的定位、测速和高精度的标准时间。全球定位系统可满足位于全球地面任何一处或近地空间的军事用户连续且精确地确定三维位置、三维运动和时间的需求。该系统包括太空中的31颗GPS人造卫星.该卫星仍在工作。
2D轨道图
3D轨道图
轨道高度分析图
轨道倾角分析图
轨道综合分析图
查看轨道综合分析图